User: anonymous   Login
Location: *
(46.1866°S, 178.5290°W)
Time: 03:44:15
(UTC+00:00)
Language:

Cosmos 967 Rocket - Orbit

View from above orbital plane
View from above orbital plane
View from above satellite
View from above satellite

Ground track
Ground track

The orbit data is extracted from the following two-line orbital elements,

1 10513U 77116B   21207.58256131 -.00000093  00000-0 -11342-4 0  9994
2 10513  65.8344 357.6971 0025257 355.8022  84.3206 13.78569714194532
Epoch (UTC): 26 July 2021 13:58:53
Eccentricity: 0.0025257
inclination: 65.8344°
perigee height: 950 km
apogee height: 987 km
right ascension of ascending node: 357.6971°
argument of perigee: 355.8022°
revolutions per day: 13.78569714
mean anomaly at epoch: 84.3206°
orbit number at epoch: 19453

The dashed part of the orbit path shows where the satellite is in the earth's shadow,  

DLR